This demonstration page uses our WeatherBlox Daily Observations layout. Learn more.

Left ArrowRight Arrow

41.86663, -103.66717

Hourly Observations for June 9, 2022

Temp ( °F °C ) Dew Point ( °F °C ) Humidity (%) Winds ( mph kmh ) Pressure ( in mb ) Visibility ( mi km ) Precip ( " mm )
12:53 am 00:53 Clear 63 17.2 43 6.1 48 48 E 13 20 29.91 1013 10 16 0.00 0.00
1:53 am 01:53 Clear 61 16.1 42 5.6 50 50 ESE 12 19 29.89 1012 10 16 0.00 0.00
2:53 am 02:53 Clear 60 15.6 43 6.1 53 53 E 6 9 29.89 1012 10 16 0.00 0.00
3:53 am 03:53 Clear 60 15.6 43 6.1 53 53 E 8 13 29.88 1012 10 16 0.00 0.00
4:53 am 04:53 Clear 59 15 43 6.1 56 56 E 8 13 29.86 1011 10 16 0.00 0.00
5:53 am 05:53 Sunny 58 14.4 44 6.7 60 60 ESE 9 15 29.84 1011 10 16 0.00 0.00
6:53 am 06:53 Sunny 60 15.6 46 7.8 60 60 E 8 13 29.84 1011 10 16 0.00 0.00
7:53 am 07:53 Sunny 64 17.8 50 10 60 60 SE 8 13 29.84 1010 10 16 0.00 0.00
8:53 am 08:53 Sunny 68 20 52 11.1 57 57 S 3 6 29.85 1011 10 16 0.00 0.00
9:53 am 09:53 Sunny 71 21.7 51 10.6 49 49 NNW 8 13 29.86 1011 10 16 0.00 0.00
10:53 am 10:53 Sunny 76 24.4 50 10 40 40 undefined N/A 29.84 1011 10 16 0.00 0.00
11:53 am 11:53 Sunny 80 26.7 51 10.6 37 37 VRB 5 7 29.82 1010 10 16 0.00 0.00
12:53 pm 12:53 Sunny 84 28.9 50 10 31 31 undefined N/A 29.79 1009 10 16 0.00 0.00
1:53 pm 13:53 Sunny 87 30.6 51 10.6 29 29 undefined N/A 29.78 1008 10 16 0.00 0.00
2:53 pm 14:53 Sunny 85 29.4 50 10 30 30 NE 6 9 29.78 1009 10 16 0.00 0.00
3:53 pm 15:53 Sunny 82 27.8 53 11.7 37 37 NNE 20 31 29.80 1009 10 16 0.00 0.00
4:53 pm 16:53 Sunny 84 28.9 51 10.6 32 32 NNE 15 24 29.80 1009 10 16 0.00 0.00
5:53 pm 17:53 Sunny 83 28.3 50 10 32 32 NNE 14 22 29.82 1010 10 16 0.00 0.00
6:53 pm 18:53 Sunny 79 26.1 48 8.9 34 34 NNE 12 19 29.83 1010 10 16 0.00 0.00
7:53 pm 19:53 Sunny 74 23.3 46 7.8 37 37 N 7 11 29.86 1011 10 16 0.00 0.00
8:53 pm 20:53 Clear 67 19.4 47 8.3 49 49 N 8 13 29.88 1012 10 16 0.00 0.00
9:53 pm 21:53 Clear 65 18.3 49 9.4 56 56 NNE 7 11 29.90 1012 10 16 0.00 0.00
10:53 pm 22:53 Clear 63 17.2 51 10.6 65 65 NNE 3 6 29.90 1012 10 16 0.00 0.00
11:53 pm 23:53 Clear 62 16.7 51 10.6 67 67 Calm 29.90 1013 10 16 0.00 0.00

Powered by AerisWeather